{"data":{"norad_id":49729,"epoch":"2026-09-19T23:22:52.054176Z","epoch_age_seconds":90733,"freshness":"FRESH","line1":"1 49729U 21115F   26262.97421359  .00000973  00000+0  43099-4 0  9996","line2":"2 49729  53.1609 354.2569 0001115  69.2039 290.9082 15.31709336264895","mean_motion":15.31709336,"eccentricity":0.0001115,"inclination_deg":53.1609,"raan_deg":354.2569,"arg_perigee_deg":69.2039,"mean_anomaly_deg":290.9082,"bstar":4.3099e-5,"rev_number":26489,"period_min":94.012614936493,"perigee_km":469.94851855489,"apogee_km":471.47581191873,"semimajor_km":6848.8491652368,"source":"CELESTRAK","updated_at":"2026-09-20T09:00:39.403756Z"}}